Content
SEND FEEDBACK

Daily
Averages
Monthly
Summary
Canada

MONTREAL, QUEBEC


Home > North America > Canada > Quebec
Elevation: 118 feet     Latitude: 45 28N     Longitude: 073 45W

WEATHER
 
SELECT A DAY
Number of Records: 198,587;   Date Range: 1/1/95 - 8/31/14
 
SHARE

PRINT THIS DATA

[ ← Previous Day ]
WEATHER ALMANAC - MARCH 3, 2013
[ Next Day → ]
[ °C ]   °F
Weather ElementAverageHighLow
Temperature24.9 °F28.4 °F (1:00 pm)23 °F (1:00 am)
Dewpoint20.2 °F23 °F (4:33 pm)17.6 °F (9:00 am)
Humidity82 %93 % (1:00 am)59 % (1:00 pm)
Barometer29.74 in29.78 in (1:00 am)29.71 in (2:00 pm)
Wind Speed14.4 mph19.6 mph (2:00 pm)
Wind Gust23 mph (1:00 pm)
Weather ElementAverage
Visibility10.7 mi
Wind DirectionWSW (243.3 °)

Weather ElementTotal
Precipitation---
Heating Degree Days39.3 (Base 65)
Averaged from 30 records on March 3, 2013
WEATHER CONDITIONS BREAKOUT
WIND DIRECTION BREAKOUT
WEATHER BY HOUR - MARCH 3, 2013
[ °C ]   °F
Local TimeTemperatureDewpointHumidityBarometerVisibilityWind DirectionWind SpeedGust SpeedPrecipitationEventsConditions
1:00 AM23.0 °F21.2 °F93 %29.78 in2.2 miWSW (250°)9.2 mphSnowLight Snow
2:00 AM23.0 °F21.2 °F93 %29.77 in2.5 miWSW (250°)8.1 mphSnowLight Snow
3:00 AM23.0 °F21.2 °F93 %29.76 in4.0 miWSW (250°)8.1 mphSnowLight Snow
4:00 AM23.0 °F21.2 °F93 %29.76 in5.0 miWSW (240°)9.2 mphSnowLight Snow
5:00 AM23.0 °F21.2 °F93 %29.76 in6.0 miWSW (240°)9.2 mphSnowLight Snow
6:00 AM23.0 °F19.4 °F86 %29.76 in12.0 miWSW (250°)11.5 mphSnowLight Snow
6:50 AM23.0 °F19.4 °F86 %29.77 in15.0 miWSW (240°)10.4 mphOvercast
7:00 AM23.0 °F19.4 °F86 %29.77 in15.0 miWSW (240°)12.7 mphOvercast
7:00 AM23.0 °F20.0 °F81 %29.77 in15.0 miWSW (240°)11.5 mphSnowLight Snow
8:00 AM23.0 °F19.4 °F86 %29.78 in15.0 miSW (230°)10.4 mphSnowLight Snow
9:00 AM23.0 °F17.6 °F80 %29.78 in15.0 miSW (230°)13.8 mphSnowLight Snow
10:00 AM24.8 °F17.6 °F74 %29.76 in15.0 miWSW (240°)10.4 mphOvercast
11:00 AM26.6 °F19.4 °F74 %29.76 in15.0 miWSW (240°)15.0 mphMostly Cloudy
12:00 PM26.6 °F17.6 °F69 %29.73 in15.0 miWSW (250°)17.3 mphMostly Cloudy
1:00 PM28.4 °F19.4 °F69 %29.72 in15.0 miWest (260°)16.1 mph23.0 mphMostly Cloudy
1:00 PM28.0 °F19.0 °F59 %29.73 in15.0 miWest (260°)16.1 mphPartly Cloudy
2:00 PM28.4 °F19.4 °F69 %29.71 in15.0 miWSW (240°)19.6 mphOvercast
2:04 PM28.4 °F21.2 °F74 %29.71 in15.0 miWSW (250°)18.4 mphSnowLight Snow Showers
3:00 PM28.4 °F21.2 °F74 %29.71 in15.0 miWSW (250°)16.1 mphSnowLight Snow Showers
3:46 PM28.4 °F21.2 °F74 %29.71 in3.0 miWSW (240°)18.4 mphSnowLight Snow
4:00 PM26.6 °F21.2 °F80 %29.71 in5.0 miWSW (240°)18.4 mphSnowLight Snow
4:33 PM26.6 °F23.0 °F86 %29.72 in3.0 miWSW (240°)18.4 mphSnowLight Snow
5:00 PM26.6 °F23.0 °F86 %29.72 in4.0 miWSW (240°)17.3 mphSnowLight Snow
6:00 PM24.8 °F21.2 °F86 %29.73 in6.0 miWSW (240°)17.3 mphSnowLight Snow
7:00 PM25.0 °F21.0 °F78 %29.74 in10.0 miWSW (240°)18.4 mphSnowLight Snow
7:00 PM24.8 °F21.2 °F86 %29.73 in10.0 miWSW (240°)17.3 mphSnowLight Snow
8:00 PM23.0 °F21.2 °F93 %29.73 in8.0 miWSW (240°)15.0 mph21.9 mphSnowLight Snow
9:00 PM23.0 °F19.4 °F86 %29.74 in15.0 miWSW (250°)17.3 mphSnowLight Snow
10:00 PM23.0 °F19.4 °F86 %29.73 in15.0 miWSW (240°)16.1 mph23.0 mphOvercast
11:00 PM23.0 °F19.4 °F86 %29.72 in15.0 miWSW (240°)16.1 mphOvercast
Hourly data recorded from CYUL, located miles away from Montreal, Quebec







STORIES FROM OUR PARTNERS